User: anonymous   Login
Location: Newark
(34.1333°N, 7.9667°W)
Time: 22:32:06
(UTC+00:00)
Language:

RITE TARGET 2 - Orbit

View from above orbital plane
View from above orbital plane
View from above satellite
View from above satellite

Ground track
Ground track

The orbit data is extracted from the following two-line orbital elements,

1 28455U 02056G   24051.60138590  .00001544  00000-0  56458-3 0  9996
2 28455  98.6486   9.3377 0009849 190.7391 169.3585 14.34366994 51503
Epoch (UTC): 20 February 2024 14:25:59
Eccentricity: 0.0009849
inclination: 98.6486°
perigee height: 770 km
apogee height: 784 km
right ascension of ascending node: 9.3377°
argument of perigee: 190.7391°
revolutions per day: 14.34366994
mean anomaly at epoch: 169.3585°
orbit number at epoch: 5150

The dashed part of the orbit path shows where the satellite is in the earth's shadow,  

DLR